When you browse on this site, cookies collect data to enhance your experience and personalize the content and advertising you see.
Visit our Privacy Policy to learn more. By continuing to use the site, you agree to this use of cookies and data.
  • In Czech Republic
  • List of Countries
  • For 7 days
  • Water Temperature
  • Satellite Maps
  • Weather Map
  • Weather Widgets
  • user-avatar
    Login

    Hourly Weather Igls

    Today, 13 December, Thursday

    Time Temperature Precipitation Wind Pressure Humidity
    00:00 -8°C° 0 mm 1 mps 683 mmHg 87%
    01:00 -9°C° 0 mm 2 mps 682 mmHg 84%
    02:00 -9°C° 0 mm 2 mps 682 mmHg 84%
    03:00 -9°C° 0 mm 2 mps 681 mmHg 85%
    04:00 -9°C° 0 mm 2 mps 681 mmHg 85%
    05:00 -10°C° 0 mm 2 mps 681 mmHg 85%
    06:00 -10°C° 0 mm 2 mps 681 mmHg 85%
    07:00 -10°C° 0 mm 2 mps 681 mmHg 84%
    08:00 -9°C° 0 mm 2 mps 681 mmHg 82%
    09:00 -7°C° 0 mm 2 mps 680 mmHg 80%
    10:00 -6°C° 0 mm 2 mps 680 mmHg 78%
    11:00 -5°C° 0 mm 2 mps 680 mmHg 75%
    12:00 -3°C° 0 mm 2 mps 680 mmHg 72%
    13:00 -2°C° 0 mm 2 mps 680 mmHg 69%
    14:00 -3°C° 0 mm 2 mps 680 mmHg 73%
    15:00 -4°C° 0 mm 2 mps 679 mmHg 78%
    16:00 -3°C° 0 mm 1 mps 679 mmHg 82%
    17:00 -6°C° 0 mm 2 mps 679 mmHg 82%
    18:00 -7°C° 0 mm 2 mps 679 mmHg 82%
    19:00 -8°C° 0 mm 2 mps 679 mmHg 82%
    20:00 -8°C° 0 mm 2 mps 680 mmHg 81%
    21:00 -8°C° 0 mm 2 mps 680 mmHg 80%
    22:00 -9°C° 0 mm 2 mps 680 mmHg 79%
    23:00 -9°C° 0 mm 2 mps 680 mmHg 79%

    Tomorrow, 14 December, Friday

    Time Temperature Precipitation Wind Pressure Humidity
    00:00 -9°C° 0 mm 2 mps 680 mmHg 78%
    01:00 -9°C° 0 mm 2 mps 680 mmHg 77%
    02:00 -9°C° 0 mm 2 mps 680 mmHg 76%
    03:00 -9°C° 0 mm 2 mps 680 mmHg 76%
    04:00 -9°C° 0 mm 2 mps 680 mmHg 75%
    05:00 -8°C° 0 mm 1 mps 680 mmHg 74%
    06:00 -8°C° 0 mm 1 mps 680 mmHg 73%
    07:00 -8°C° 0 mm 1 mps 680 mmHg 72%
    08:00 -6°C° 0 mm 1 mps 681 mmHg 71%
    09:00 -4°C° 0 mm 1 mps 681 mmHg 69%
    10:00 -2°C° 0 mm 1 mps 682 mmHg 67%
    11:00 -1°C° 0 mm 1 mps 682 mmHg 63%
    12:00 0°C° 0 mm 1 mps 682 mmHg 59%
    13:00 +1°C° 0 mm 0 mps 682 mmHg 54%
    14:00 0°C° 0 mm 1 mps 682 mmHg 62%
    15:00 -1°C° 0 mm 1 mps 681 mmHg 70%
    16:00 -3°C° 0 mm 1 mps 681 mmHg 77%
    17:00 -4°C° 0 mm 1 mps 682 mmHg 77%
    18:00 -6°C° 0 mm 1 mps 682 mmHg 77%
    19:00 -7°C° 0 mm 1 mps 682 mmHg 77%
    20:00 -7°C° 0 mm 1 mps 683 mmHg 73%
    21:00 -7°C° 0 mm 1 mps 683 mmHg 70%
    22:00 -8°C° 0 mm 1 mps 683 mmHg 66%
    23:00 -8°C° 0 mm 1 mps 683 mmHg 64%

    Day after tomorrow, 15 December, Saturday

    Time Temperature Precipitation Wind Pressure Humidity
    00:00 -8°C° 0 mm 1 mps 683 mmHg 63%
    01:00 -8°C° 0 mm 1 mps 683 mmHg 61%
    02:00 -8°C° 0 mm 1 mps 684 mmHg 62%
    03:00 -8°C° 0 mm 1 mps 684 mmHg 62%
    04:00 -8°C° 0 mm 1 mps 684 mmHg 63%
    05:00 -8°C° 0 mm 1 mps 684 mmHg 63%
    06:00 -8°C° 0 mm 1 mps 684 mmHg 64%
    07:00 -8°C° 0 mm 1 mps 684 mmHg 65%
    08:00 -7°C° 0 mm 1 mps 685 mmHg 65%
    09:00 -4°C° 0 mm 1 mps 685 mmHg 66%
    10:00 -3°C° 0 mm 1 mps 685 mmHg 67%
    11:00 -2°C° 0 mm 1 mps 685 mmHg 65%
    12:00 0°C° 0 mm 1 mps 685 mmHg 63%
    13:00 +1°C° 0 mm 1 mps 685 mmHg 61%
    14:00 0°C° 0 mm 1 mps 685 mmHg 67%
    15:00 -2°C° 0 mm 1 mps 684 mmHg 72%
    16:00 -3°C° 0 mm 1 mps 684 mmHg 77%
    17:00 -4°C° 0 mm 1 mps 684 mmHg 74%
    18:00 -6°C° 0 mm 1 mps 684 mmHg 71%
    19:00 -6°C° 0 mm 1 mps 685 mmHg 68%
    20:00 -6°C° 0 mm 1 mps 684 mmHg 65%
    21:00 -6°C° 0 mm 1 mps 684 mmHg 62%
    22:00 -6°C° 0 mm 1 mps 684 mmHg 58%
    23:00 -6°C° 0 mm 1 mps 683 mmHg 56%

    16 December, Sunday

    Time Temperature Precipitation Wind Pressure Humidity
    00:00 -4°C° 0 mm 1 mps 683 mmHg 54%
    01:00 -4°C° 0 mm 1 mps 683 mmHg 52%
    02:00 -3°C° 0 mm 1 mps 683 mmHg 53%
    03:00 -2°C° 0 mm 1 mps 682 mmHg 53%
    04:00 -1°C° 0 mm 1 mps 682 mmHg 54%
    05:00 -1°C° 0.2 mm 1 mps 682 mmHg 59%
    06:00 0°C° 0.2 mm 1 mps 682 mmHg 64%
    07:00 0°C° 0.2 mm 1 mps 682 mmHg 69%
    08:00 +1°C° 0.6 mm 1 mps 682 mmHg 74%
    09:00 +2°C° 0.6 mm 1 mps 682 mmHg 78%
    10:00 +3°C° 0.6 mm 1 mps 682 mmHg 83%
    11:00 +4°C° 0.4 mm 1 mps 682 mmHg 83%
    12:00 +4°C° 0.4 mm 1 mps 681 mmHg 84%
    13:00 +5°C° 0.4 mm 1 mps 681 mmHg 84%
    14:00 +5°C° 0.3 mm 1 mps 681 mmHg 86%
    15:00 +4°C° 0.3 mm 1 mps 681 mmHg 88%
    16:00 +4°C° 0.3 mm 1 mps 681 mmHg 90%
    17:00 +4°C° 0.8 mm 1 mps 681 mmHg 92%
    18:00 +3°C° 0.8 mm 1 mps 682 mmHg 94%
    19:00 +3°C° 0.8 mm 1 mps 682 mmHg 96%
    20:00 +3°C° 0.6 mm 1 mps 682 mmHg 96%
    21:00 +3°C° 0.6 mm 1 mps 683 mmHg 96%
    22:00 +3°C° 0.6 mm 1 mps 683 mmHg 96%
    23:00 +3°C° 0.2 mm 1 mps 683 mmHg 96%

    17 December, Monday

    Time Temperature Precipitation Wind Pressure Humidity
    00:00 +2°C° 0.2 mm 1 mps 683 mmHg 95%
    01:00 +2°C° 0.2 mm 1 mps 683 mmHg 95%
    02:00 +2°C° 0.1 mm 1 mps 683 mmHg 94%
    03:00 +1°C° 0.1 mm 1 mps 683 mmHg 93%
    04:00 +1°C° 0.1 mm 1 mps 683 mmHg 92%
    05:00 0°C° 0 mm 1 mps 683 mmHg 92%
    06:00 -1°C° 0 mm 1 mps 683 mmHg 92%
    07:00 -1°C° 0 mm 1 mps 684 mmHg 91%
    08:00 0°C° 0 mm 1 mps 684 mmHg 90%
    09:00 0°C° 0 mm 1 mps 685 mmHg 88%
    10:00 +1°C° 0 mm 1 mps 685 mmHg 86%
    11:00 +2°C° 0 mm 1 mps 685 mmHg 84%
    12:00 +3°C° 0 mm 1 mps 685 mmHg 82%
    13:00 +4°C° 0 mm 1 mps 685 mmHg 79%
    14:00 +3°C° 0.1 mm 1 mps 685 mmHg 83%
    15:00 +3°C° 0.1 mm 1 mps 686 mmHg 87%
    16:00 +2°C° 0.1 mm 1 mps 686 mmHg 90%
    17:00 +1°C° 0.1 mm 1 mps 686 mmHg 91%
    18:00 +1°C° 0.1 mm 1 mps 687 mmHg 92%
    19:00 0°C° 0.1 mm 1 mps 687 mmHg 92%
    20:00 0°C° 0 mm 1 mps 687 mmHg 92%
    21:00 -1°C° 0 mm 1 mps 687 mmHg 92%
    22:00 -1°C° 0 mm 1 mps 688 mmHg 91%
    23:00 -2°C° 0 mm 1 mps 688 mmHg 91%

    18 December, Tuesday

    Time Temperature Precipitation Wind Pressure Humidity
    00:00 -2°C° 0 mm 1 mps 688 mmHg 90%
    01:00 -3°C° 0 mm 1 mps 688 mmHg 89%
    02:00 -3°C° 0 mm 1 mps 688 mmHg 88%
    03:00 -4°C° 0 mm 1 mps 687 mmHg 87%
    04:00 -4°C° 0 mm 1 mps 687 mmHg 86%
    05:00 -4°C° 0 mm 1 mps 687 mmHg 85%
    06:00 -6°C° 0 mm 1 mps 687 mmHg 83%
    07:00 -6°C° 0 mm 1 mps 687 mmHg 82%
    08:00 -3°C° 0 mm 1 mps 688 mmHg 80%
    09:00 -2°C° 0 mm 1 mps 688 mmHg 77%
    10:00 -1°C° 0 mm 1 mps 688 mmHg 75%
    11:00 +1°C° 0 mm 1 mps 688 mmHg 72%
    12:00 +2°C° 0 mm 1 mps 687 mmHg 69%
    13:00 +3°C° 0 mm 1 mps 687 mmHg 65%
    14:00 +2°C° 0 mm 1 mps 686 mmHg 69%
    15:00 +1°C° 0 mm 1 mps 686 mmHg 73%
    16:00 -1°C° 0 mm 1 mps 685 mmHg 77%
    17:00 -4°C° 0 mm 2 mps 685 mmHg 75%
    18:00 -4°C° 0 mm 2 mps 685 mmHg 74%
    19:00 -5°C° 0 mm 2 mps 685 mmHg 72%
    20:00 -5°C° 0 mm 2 mps 685 mmHg 70%
    21:00 -7°C° 0 mm 3 mps 684 mmHg 68%
    22:00 -7°C° 0 mm 3 mps 684 mmHg 65%
    23:00 -6°C° 0 mm 3 mps 684 mmHg 65%
    Show more